Flag for Monaco Weather past 2 weeks in Monaco, Monaco

Now
48 °F

Partly sunny.


Feels Like: 45 °F
Forecast: 38 / 48 °F
Wind: 8 mph from Northwest

Location: Nice Airport

Current Time: Jan 29, 2015 at 11:50:05 AM

Latest Report: Jan 29, 2015 at 11:00 AM


Visibility: N/A

Pressure: 29.53 "Hg

Humidity: 50%

Dew point: 30 °F

Location of MonacoLocation

Historic Weather in Monaco — Graph

°F

Monaco temperature yesterday

Maximum temperature yesterday: 55 °F (at 2:30 PM)
Minimum temperature yesterday: 39 °F (at 4:30 AM)
Average temperature yesterday: 46 °F

Past Weeks' High & Low Weather Summary

 TemperatureHumidityPressure
High63 °F (Jan 14, 3:13 PM)94% (Jan 17, 2:30 AM)30.21 "Hg (Jan 17, 2:30 AM)
Low39 °F (Jan 18, 2:00 AM)26% (Jan 26, 1:30 PM)29.53 "Hg (Jan 29, 11:00 AM)
Average48 °F60%29.91 "Hg
* Reported Jan 14 11:00 AM — Jan 29 11:00 AM, Monaco, Weather by CustomWeather, © 2014

Note: Actual official high and low records may vary slightly from our data, if they occured in-between our weather recording intervals... More about our weather records

Advertising

Monaco weather history for previous 24 hours

 ConditionsComfort  
Time TempWeatherWind HumidityBarometerVisibility
11:00 AM
Jan 29
48 °FPartly sunny.8 mph50%29.53 "HgN/A
10:30 AM45 °FPartly sunny.12 mph53%29.56 "HgN/A
10:00 AM43 °FPartly sunny.12 mph57%29.56 "HgN/A
9:30 AM41 °FPartly sunny.12 mph61%29.56 "HgN/A
9:00 AM39 °FPartly sunny.12 mph61%29.56 "HgN/A
8:30 AM39 °FPartly sunny.12 mph61%29.59 "HgN/A
8:00 AM39 °FPartly sunny.13 mph61%29.59 "HgN/A
7:30 AM39 °FClear.10 mph61%29.59 "Hg10 mi
7:00 AM39 °FClear.13 mph61%29.59 "Hg10 mi
6:30 AM39 °FClear.12 mph61%29.59 "Hg10 mi
6:00 AM39 °FClear.14 mph61%29.62 "Hg10 mi
5:30 AM39 °FClear.13 mph61%29.62 "Hg10 mi
5:00 AM39 °FClear.10 mph61%29.65 "Hg10 mi
4:30 AM41 °FClear.12 mph57%29.68 "Hg10 mi
3:30 AM41 °FClear.14 mph57%29.71 "Hg10 mi
3:00 AM41 °FClear.13 mph57%29.74 "Hg10 mi
2:00 AM41 °FClear.10 mph57%29.77 "Hg10 mi
1:30 AM43 °FClear.14 mph53%29.77 "Hg10 mi
1:00 AM43 °FClear.13 mph53%29.80 "Hg10 mi
12:30 AM43 °FClear.9 mph57%29.80 "Hg10 mi
12:00 AM43 °FClear.8 mph57%29.83 "Hg10 mi
11:30 PM
Jan 28
41 °FClear.7 mph61%29.83 "Hg10 mi
11:00 PM43 °FClear.9 mph57%29.86 "Hg10 mi
10:30 PM43 °FClear.7 mph61%29.89 "Hg10 mi
10:00 PM43 °FClear.9 mph61%29.89 "Hg10 mi
9:30 PM43 °FClear.7 mph61%29.89 "Hg10 mi
9:00 PM43 °FClear.8 mph61%29.92 "Hg10 mi
8:30 PM45 °FClear.8 mph57%29.92 "Hg10 mi
8:00 PM46 °FPassing clouds.7 mph57%29.92 "HgN/A
7:30 PM48 °FClear.8 mph50%29.95 "Hg10 mi
7:00 PM48 °FClear.9 mph54%29.95 "Hg10 mi
6:30 PM50 °FPassing clouds.12 mph50%29.95 "HgN/A
6:00 PM52 °FPassing clouds.13 mph47%29.95 "HgN/A
5:30 PM52 °FScattered clouds.12 mph44%29.95 "HgN/A
5:00 PM54 °FScattered clouds.13 mph38%29.95 "HgN/A
4:30 PM54 °FScattered clouds.16 mph44%29.95 "HgN/A
4:00 PM54 °FScattered clouds.15 mph44%29.98 "HgN/A
3:30 PM55 °FScattered clouds.13 mph41%30.01 "HgN/A
3:00 PM54 °FPartly sunny.12 mph38%30.01 "HgN/A
2:30 PM55 °FPartly sunny.12 mph38%30.01 "HgN/A
2:00 PM54 °FSunny.8 mph44%30.01 "Hg10 mi
1:30 PM54 °FPartly sunny.8 mph44%30.04 "HgN/A
1:00 PM54 °FPartly sunny.6 mph41%30.04 "HgN/A
12:30 PM54 °FPartly sunny.6 mph35%30.07 "HgN/A
12:00 PM52 °FPassing clouds.8 mph38%30.07 "HgN/A
11:30 AM50 °FSunny.12 mph37%30.07 "Hg10 mi
11:00 AM48 °FSunny.10 mph40%30.07 "Hg10 mi
Weather by CustomWeather, © 2014

See weather overviewHow to use our weather pages